[[{"header":{"parameterUnit":"m.s-1","parameterCategory":1,"la1":30.2991,"la2":30.254,"lo1":-89.0895,"lo2":-89.0444,"dy":0.0017,"dx":0.0017,"nx":28,"ny":28,"refTime":"2025-06-02T09:00:00:Z","depth":0,"parameterNumber":2,"parameterNumberName":"U-component_of_WINDS"},"data":[0,0,0,0,0,0,0,0,0,0,0,0,0,0,0,0,0,0,0,0,0,0,0,0,0,0,0,0,0,0,0,0,0,0,0,0,0,0,0,0,0,0,0,0,0,0,0,0,0,0,0,0,0,0,0,0,0,0,-4.1259,-4.126,0,-4.1295,-4.1296,-4.1296,-4.1193,-4.119,-4.1187,-4.1184,-4.1219,-4.1223,-4.1227,0,0,0,0,0,0,0,0,0,0,0,0,0,-4.11,-4.1104,-4.1259,-4.126,-4.126,-4.1295,-4.1296,-4.1296,-4.1193,-4.119,-4.1186,-4.1182,-4.1218,-4.1222,-4.1227,0,0,0,0,0,0,0,0,0,0,0,0,0,-4.1156,-4.1105,-4.1259,-4.1213,-4.1209,-4.1295,-4.1296,-4.1296,-4.1194,-4.119,-4.1185,-4.118,-4.1216,-4.1222,-4.1228,-4.1359,0,0,-4.1245,-4.1248,0,0,0,0,0,0,0,0,-4.1153,-4.1162,-4.122,-4.1217,-4.1212,-4.1235,-4.1252,-4.1317,-4.1195,-4.12,-4.1184,-4.1178,-4.1228,-4.1233,-4.125,-4.1361,-4.1362,-4.1246,-4.125,-4.1252,-4.1254,0,0,0,0,0,0,0,-4.1149,-4.116,-4.1273,-4.122,-4.1216,-4.119,-4.1193,-4.1264,-4.124,-4.1199,-4.1192,-4.1198,-4.1225,-4.1244,-4.125,-4.1363,-4.1246,-4.1251,-4.1255,-4.1257,-4.1581,-4.1586,0,0,0,0,0,0,-4.1152,-4.1157,-4.1272,-4.1274,-4.1171,-4.1197,-4.12,-4.1232,-4.1239,-4.1236,-4.1202,-4.1193,-4.1237,-4.1243,-4.1251,-4.1402,-4.1252,-4.1258,-4.1261,-4.1576,-4.1582,-4.1587,0,0,0,0,0,0,-4.1149,-4.1163,-4.1271,-4.1214,-4.1226,-4.1205,-4.1242,-4.1236,-4.1254,-4.1241,-4.1236,-4.1226,-4.1233,-4.1242,-4.1332,-4.1402,-4.126,-4.1265,-4.157,-4.1578,-4.1585,-4.1708,0,0,0,0,0,0,-4.1145,-4.1162,-4.1212,-4.1216,-4.1229,-4.1353,-4.1246,-4.124,-4.1265,-4.1254,-4.1262,-4.1259,-4.123,-4.1324,-4.1338,-4.1408,-4.127,-4.1563,-4.1573,-4.1582,-4.1698,-4.1719,-4.1738,0,0,0,0,0,-4.1139,-4.1246,-4.1215,-4.123,-4.1291,-4.1357,-4.1364,-4.1329,-4.1271,-4.132,-4.1312,-4.1259,-4.1393,-4.1334,-4.1349,-4.1421,-4.1559,-4.157,-4.1582,-4.1689,-4.1715,-4.1737,0,0,0,0,0,0,-4.125,-4.1245,-4.1211,-4.1323,-4.1341,-4.1339,-4.14,-4.1358,-4.1393,-4.1381,-4.1336,-4.1339,-4.1436,-4.1438,-4.1373,-4.1548,-4.1466,-4.1481,-4.1542,-4.1567,-4.1587,-4.1582,-4.1275,0,0,0,0,0,-4.1288,-4.1342,-4.1335,-4.1434,-4.1445,-4.1422,-4.1449,-4.1421,-4.1437,-4.1444,-4.1442,-4.146,-4.1506,-4.1537,-4.1579,-4.1699,-4.1698,-4.1756,-4.1776,-4.1792,-4.1805,-4.1866,-4.1891,-4.1625,-4.1625,-4.1625,0,0,-4.1366,-4.137,-4.1407,-4.1456,-4.1467,-4.1523,-4.1429,-4.1492,-4.1533,-4.1454,-4.1537,-4.1538,-4.1555,-4.166,-4.1706,-4.1664,-4.1878,-4.1807,-4.182,-4.1823,-4.188,-4.1905,-4.1928,-4.1633,-4.1631,-4.163,0,0,-4.1535,-4.1545,-4.1627,-4.164,-4.1658,-4.1642,-4.1662,-4.1667,-4.1664,-4.1748,-4.1689,-4.1737,-4.1818,-4.1832,-4.185,-4.2026,-4.1977,-4.2041,-4.2143,-4.2204,-4.2225,-4.2243,-4.2303,-4.2325,-4.2055,-4.2055,-4.2055,0,-4.1629,-4.1712,-4.1675,-4.1742,-4.1764,-4.1697,-4.1779,-4.1793,-4.1824,-4.1841,-4.1795,-4.1894,-4.1901,-4.2007,-4.205,-4.2068,-4.2088,-4.2038,-4.2225,-4.2243,-4.2259,-4.2316,-4.2339,-4.2062,-4.2061,-4.2061,-4.206,0,-4.1825,-4.1883,-4.1947,-4.1978,-4.2009,-4.2084,-4.2057,-4.2092,-4.2062,-4.2051,-4.2137,-4.2143,-4.2184,-4.2208,-4.218,-4.231,-4.2284,-4.2233,-4.2148,-4.2292,-4.2345,-4.2366,-4.2073,-4.207,-4.2068,-4.2066,0,0,-4.2062,-4.2073,-4.2096,-4.2109,-4.2124,-4.2168,-4.224,-4.2281,-4.231,-4.2335,-4.2392,-4.2463,-4.2415,-4.2435,-4.2408,-4.2462,-4.2597,-4.2403,-4.2403,-4.2436,-4.2739,-4.2774,-4.28,-4.2567,-4.2571,-4.2574,-4.2736,0,-4.2226,-4.2348,-4.2317,-4.2438,-4.249,-4.2428,-4.249,-4.2506,-4.2498,-4.2541,-4.2532,-4.2581,-4.2516,-4.2528,-4.2578,-4.257,-4.2657,-4.2559,-4.2617,-4.262,-4.2611,-4.2828,-4.2866,-4.3018,-4.2757,-4.276,-4.2763,0,-4.2433,-4.2465,-4.2591,-4.2597,-4.2618,-4.2674,-4.2708,-4.2751,-4.2767,-4.2758,-4.2781,-4.2743,-4.2813,-4.2732,-4.2826,-4.276,-4.2783,-4.2783,-4.2788,-4.2789,-4.2697,-4.2831,-4.3066,-4.3088,-4.2795,-4.2792,-4.279,0,-4.2589,-4.2665,-4.2749,-4.2762,-4.2772,-4.2813,-4.2819,-4.2831,-4.2857,-4.2887,-4.2903,-4.2942,-4.2962,-4.2993,-4.2966,-4.291,-4.3063,-4.298,-4.3055,-4.3056,-4.3087,-4.3085,-4.3325,-4.3109,-4.3109,-4.3108,-4.3108,0,-4.2774,-4.2852,-4.2819,-4.287,-4.2956,-4.2921,-4.3007,-4.3006,-4.3017,-4.3067,-4.3017,-4.3064,-4.3028,-4.3072,-4.3052,-4.3132,-4.3142,-4.3135,-4.3128,-4.3137,-4.3138,-4.3149,-4.3136,-4.3114,-4.3113,-4.3112,-4.3111,0,-4.2961,-4.2942,-4.3029,-4.3032,-4.3034,-4.3097,-4.3099,-4.3146,-4.3136,-4.3199,-4.3212,-4.3195,-4.3245,-4.3222,-4.3275,-4.3261,-4.3362,-4.3343,-4.3356,-4.335,-4.3425,-4.3417,-4.3678,-4.3709,-4.3476,-4.3478,-4.348,0,-4.3077,-4.3136,-4.3146,-4.3175,-4.3185,-4.3234,-4.326,-4.3228,-4.3257,-4.3281,-4.3325,-4.3371,-4.3405,-4.3487,-4.3479,-4.3519,-4.3498,-4.3587,-4.3503,-4.351,-4.3495,-4.349,-4.3494,-4.3602,-4.3605,-4.3607,-4.3609,0,-4.3286,-4.3273,-4.3313,-4.3351,-4.3384,-4.3411,-4.3435,-4.3462,-4.3431,-4.3466,-4.3516,-4.3543,-4.3597,-4.3641,-4.3676,-4.3682,-4.364,-4.3636,-4.3654,-4.3662,-4.3666,-4.3662,-4.3398,-4.3629,-4.3627,-4.3625,-4.3624,-4.3623,-4.3439,-4.3487,-4.3501,-4.3547,-4.3561,-4.3584,-4.3628,-4.3624,-4.3665,-4.3705,-4.3685,-4.3743,-4.3758,-4.38,-4.3812,-4.3856,-4.382,-4.3849,-4.3855,-4.3861,-4.387,-4.3663,-4.3863,-4.3862,-4.3861,-4.3861,-4.3861,0,-4.3641,-4.3647,-4.369,-4.3724,-4.376,-4.372,-4.3743,-4.3776,-4.3827,-4.3845,-4.388,-4.3937,-4.3981,-4.3977,-4.4017,-4.4053,-4.4035,-4.4064,-4.4059,-4.4061,-4.3901,-4.3879,-4.4078,-4.4078,-4.4078,-4.4078,-4.4078,-4.4078,-4.375,-4.383,-4.3819,-4.3905,-4.3911,-4.3967,-4.3984,-4.4004,-4.4018,-4.4084,-4.412,-4.4118,-4.4127,-4.4167,-4.4205,-4.4202,-4.4218,-4.4254,-4.4245,-4.4094,-4.4072,-4.4052,-4.403,-4.4259,-4.4259,-4.44,-4.4402,-4.4403]},{"header":{"parameterUnit":"m.s-1","parameterCategory":1,"la1":30.2991,"la2":30.254,"lo1":-89.0895,"lo2":-89.0444,"dy":0.0017,"dx":0.0017,"nx":28,"ny":28,"refTime":"2025-06-02T09:00:00:Z","depth":0,"parameterNumber":3,"parameterNumberName":"V-component_of_WINDS"},"data":[0,0,0,0,0,0,0,0,0,0,0,0,0,0,0,0,0,0,0,0,0,0,0,0,0,0,0,0,0,0,0,0,0,0,0,0,0,0,0,0,0,0,0,0,0,0,0,0,0,0,0,0,0,0,0,0,0,0,1.2742,1.2741,0,1.2715,1.2715,1.2715,1.2631,1.2629,1.2627,1.2626,1.26,1.2601,1.2603,0,0,0,0,0,0,0,0,0,0,0,0,0,1.2722,1.2723,1.2742,1.2741,1.2741,1.2715,1.2715,1.2715,1.2631,1.2629,1.2627,1.2625,1.26,1.2601,1.2603,0,0,0,0,0,0,0,0,0,0,0,0,0,1.2717,1.2723,1.2742,1.2696,1.2692,1.2715,1.2715,1.2715,1.2632,1.2629,1.2626,1.2624,1.26,1.2601,1.2603,1.2669,0,0,1.2608,1.2608,0,0,0,0,0,0,0,0,1.2717,1.2717,1.2703,1.2699,1.2695,1.2674,1.2699,1.2699,1.2633,1.2655,1.2626,1.2622,1.2627,1.2626,1.2628,1.2667,1.2666,1.2608,1.2609,1.2609,1.261,0,0,0,0,0,0,0,1.2718,1.2718,1.2731,1.2703,1.2698,1.2678,1.2674,1.2698,1.2657,1.2653,1.2646,1.2644,1.2624,1.2626,1.2626,1.2666,1.2608,1.2609,1.261,1.2611,1.2759,1.2762,0,0,0,0,0,0,1.2724,1.2719,1.2732,1.273,1.2699,1.2681,1.2676,1.2683,1.2656,1.265,1.2647,1.2641,1.2625,1.2625,1.2625,1.27,1.2609,1.2611,1.2612,1.2756,1.2759,1.2763,0,0,0,0,0,0,1.2724,1.2726,1.2733,1.2723,1.2722,1.2684,1.2692,1.2684,1.2686,1.2652,1.2644,1.2656,1.2623,1.2623,1.2658,1.2698,1.2612,1.2613,1.2752,1.2757,1.2761,1.285,0,0,0,0,0,0,1.2724,1.2726,1.275,1.2724,1.2723,1.2766,1.2695,1.2686,1.2689,1.268,1.2659,1.2653,1.262,1.2656,1.266,1.2698,1.2614,1.2749,1.2754,1.276,1.2844,1.2857,1.2869,0,0,0,0,0,1.2723,1.2777,1.2752,1.2754,1.2752,1.2769,1.2768,1.2729,1.2692,1.2716,1.2695,1.2653,1.2694,1.2661,1.2664,1.2704,1.2746,1.2753,1.2759,1.2838,1.2855,1.2869,0,0,0,0,0,0,1.2809,1.2773,1.2745,1.2791,1.2784,1.2755,1.2783,1.2748,1.2752,1.2744,1.2696,1.2692,1.2734,1.2723,1.2687,1.2766,1.2713,1.2721,1.2772,1.2787,1.28,1.2801,1.2616,0,0,0,0,0,1.2834,1.2849,1.2817,1.2861,1.2859,1.2822,1.2828,1.2799,1.2789,1.2786,1.2767,1.276,1.277,1.2778,1.2787,1.2842,1.2836,1.2872,1.2884,1.2895,1.2901,1.293,1.2945,1.2785,1.2785,1.2784,0,0,1.2884,1.2866,1.2879,1.2878,1.2869,1.2887,1.282,1.2842,1.2855,1.2789,1.2821,1.2807,1.2796,1.2842,1.2861,1.2834,1.2945,1.2903,1.2912,1.2913,1.2938,1.2954,1.2967,1.2789,1.2788,1.2788,0,0,1.2985,1.2973,1.3008,1.3001,1.2987,1.2963,1.2972,1.2948,1.2936,1.2967,1.2919,1.2934,1.2954,1.2948,1.2947,1.3048,1.3009,1.3052,1.3117,1.3146,1.3158,1.3169,1.3204,1.3218,1.3059,1.3059,1.3059,0,1.3049,1.3073,1.3031,1.3056,1.3057,1.2999,1.3035,1.303,1.302,1.3023,1.2992,1.3016,1.3004,1.3048,1.3072,1.3074,1.3083,1.3053,1.316,1.317,1.318,1.3213,1.3226,1.3064,1.3064,1.3063,1.3063,0,1.3153,1.3171,1.3201,1.3192,1.3197,1.3228,1.3191,1.3201,1.3173,1.3152,1.3185,1.3169,1.3173,1.3182,1.3154,1.3222,1.3205,1.3168,1.3113,1.3201,1.3231,1.3243,1.3072,1.307,1.3068,1.3067,0,0,1.3305,1.3274,1.3285,1.3281,1.3263,1.3276,1.3304,1.3308,1.3317,1.3314,1.3336,1.3355,1.332,1.332,1.3292,1.3317,1.3397,1.3276,1.3276,1.3298,1.347,1.3497,1.3512,1.3372,1.3374,1.3376,1.347,0,1.3399,1.3444,1.3408,1.346,1.3476,1.3422,1.3447,1.3439,1.3421,1.3432,1.3412,1.3426,1.338,1.338,1.3402,1.3382,1.343,1.3375,1.3392,1.3393,1.3395,1.3528,1.3556,1.3645,1.3482,1.3484,1.3485,0,1.3514,1.3515,1.3569,1.3548,1.3553,1.3576,1.3576,1.3588,1.3578,1.3563,1.3564,1.3529,1.3556,1.3504,1.354,1.3504,1.3509,1.35,1.3503,1.3502,1.3443,1.3529,1.3673,1.3686,1.3504,1.3502,1.3501,0,1.3619,1.3634,1.3667,1.3665,1.3642,1.3659,1.365,1.3638,1.3642,1.3643,1.3646,1.3651,1.3653,1.3658,1.3625,1.359,1.3666,1.3611,1.3654,1.3655,1.3671,1.367,1.3817,1.3678,1.3677,1.3677,1.3677,0,1.3727,1.3762,1.3714,1.3734,1.3772,1.3731,1.377,1.3755,1.3745,1.3763,1.3717,1.3735,1.3691,1.3705,1.368,1.3714,1.3716,1.3704,1.3697,1.3707,1.3709,1.3709,1.3701,1.3681,1.368,1.3679,1.3678,0,1.3848,1.3818,1.3851,1.3826,1.3821,1.385,1.3829,1.3847,1.3827,1.385,1.3853,1.3821,1.3834,1.3803,1.3812,1.3795,1.3843,1.3827,1.3846,1.3841,1.3885,1.3881,1.4036,1.4054,1.3904,1.3906,1.3907,0,1.3919,1.3944,1.3922,1.393,1.3924,1.3938,1.3942,1.3904,1.391,1.3902,1.3922,1.3931,1.3937,1.3961,1.3939,1.3946,1.3928,1.3982,1.3929,1.3939,1.3928,1.3926,1.3928,1.3993,1.3995,1.3996,1.3997,0,1.4046,1.403,1.4038,1.4041,1.4048,1.4048,1.4046,1.4055,1.4014,1.4025,1.4037,1.4042,1.4051,1.4061,1.4064,1.4055,1.402,1.4015,1.4025,1.4035,1.4045,1.4039,1.3875,1.4011,1.4009,1.4008,1.4008,1.4007,1.4143,1.4163,1.4151,1.4161,1.4156,1.4155,1.4171,1.4153,1.4163,1.4166,1.4144,1.4162,1.4153,1.4152,1.4147,1.4161,1.4137,1.4152,1.4155,1.4159,1.4166,1.4044,1.4162,1.4161,1.4161,1.416,1.416,0,1.4267,1.4257,1.4267,1.4265,1.4274,1.424,1.4236,1.4245,1.4262,1.4256,1.4262,1.4278,1.4288,1.4267,1.4274,1.4289,1.4273,1.4292,1.429,1.4289,1.4188,1.4178,1.4305,1.4305,1.4305,1.4305,1.4305,1.4305,1.4333,1.4365,1.4347,1.4377,1.4366,1.4383,1.4384,1.4383,1.4378,1.4397,1.4405,1.4391,1.4379,1.4385,1.4393,1.4387,1.4391,1.4416,1.4404,1.431,1.4296,1.4282,1.4272,1.4417,1.4418,1.4503,1.4504,1.4505]}]]